Location: Białystok
(53.1343°N, 23.1544°E)
Time: 10:49:37
(UTC+01:00)

ISS - Pass Details

Date: 28 January 2019
Orbit: 403 x 411 km, 51.6° (Epoch: 22 February)

Event Time Altitude Azimuth Distance (km) Brightness Sun altitude
Rises 19:07:38 0° 265° (W) 2,338 1.3 -27.4°
Reaches altitude 10° 19:09:43 10° 263° (W) 1,479 -0.1 -27.8°
Enters shadow 19:10:48 19° 260° (W) 1,050 -1.1 -27.9°
